Time,TemperatureF,DewpointF,PressureIn,WindDirection,WindDirectionDegrees,WindSpeedMPH,WindSpeedGustMPH,Humidity,HourlyPrecipIn,Conditions,Clouds,dailyrainin,SoftwareType,DateUTC
2013-06-07 00:00:00,56.9,54.3,30.10,East,98,0.0,0.0,91,0.00,-RA,,0.00,WeatherDisplay:10.37,2013-06-07 04:00:00,
2013-06-07 00:05:00,56.8,54.2,30.10,East,98,0.0,0.0,91,0.00,-RA,,0.00,WeatherDisplay:10.37,2013-06-07 04:05:00,
2013-06-07 00:10:00,56.7,54.4,30.10,East,98,0.0,0.0,92,0.00,-RA,,0.00,WeatherDisplay:10.37,2013-06-07 04:10:00,
2013-06-07 00:15:00,56.5,54.3,30.10,East,98,0.0,0.0,92,0.01,-RA,,0.01,WeatherDisplay:10.37,2013-06-07 04:15:00,
2013-06-07 00:20:00,56.5,54.2,30.10,East,98,0.0,0.0,92,0.00,-RA,,0.01,WeatherDisplay:10.37,2013-06-07 04:20:00,
2013-06-07 00:25:00,56.5,54.5,30.10,East,98,0.0,0.0,93,0.00,-RA,,0.01,WeatherDisplay:10.37,2013-06-07 04:25:00,
2013-06-07 00:30:00,56.5,54.5,30.09,East,98,0.0,0.0,93,0.01,-RA,,0.02,WeatherDisplay:10.37,2013-06-07 04:30:00,
2013-06-07 00:35:00,56.4,54.4,30.09,East,98,0.0,0.0,93,0.00,-RA,,0.02,WeatherDisplay:10.37,2013-06-07 04:35:00,
2013-06-07 00:40:00,56.3,54.3,30.09,East,98,0.0,0.0,93,0.00,-RA,,0.02,WeatherDisplay:10.37,2013-06-07 04:40:00,
2013-06-07 00:45:00,56.3,54.6,30.09,East,98,0.0,0.0,94,0.00,-RA,,0.02,WeatherDisplay:10.37,2013-06-07 04:45:00,
2013-06-07 00:50:00,56.3,54.6,30.09,East,98,0.0,0.0,94,0.00,-RA,,0.02,WeatherDisplay:10.37,2013-06-07 04:50:00,
2013-06-07 00:55:00,56.2,54.5,30.09,East,98,0.0,0.0,94,0.01,-RA,,0.03,WeatherDisplay:10.37,2013-06-07 04:55:00,
2013-06-07 01:00:00,56.2,54.5,30.09,East,98,0.0,0.0,94,0.00,-RA,,0.03,WeatherDisplay:10.37,2013-06-07 05:00:00,
2013-06-07 01:05:00,56.1,54.4,30.09,East,98,0.0,0.0,94,0.00,-RA,,0.03,WeatherDisplay:10.37,2013-06-07 05:05:00,
2013-06-07 01:10:00,56.2,54.5,30.09,East,98,0.0,0.0,94,0.00,-RA,,0.03,WeatherDisplay:10.37,2013-06-07 05:10:00,
2013-06-07 01:15:00,56.1,54.4,30.09,East,98,0.0,0.0,94,0.00,-RA,,0.03,WeatherDisplay:10.37,2013-06-07 05:15:00,
2013-06-07 01:20:00,56.1,54.4,30.08,East,98,0.0,0.0,94,0.00,-RA,,0.03,WeatherDisplay:10.37,2013-06-07 05:20:00,
2013-06-07 01:25:00,56.1,54.4,30.08,East,98,0.0,0.0,94,0.00,-RA,,0.03,WeatherDisplay:10.37,2013-06-07 05:25:00,
2013-06-07 01:30:00,56.0,54.3,30.08,East,98,0.0,0.0,94,0.00,-RA,,0.03,WeatherDisplay:10.37,2013-06-07 05:30:00,
2013-06-07 01:35:00,55.9,54.2,30.08,East,98,0.0,0.0,94,0.00,-RA,,0.03,WeatherDisplay:10.37,2013-06-07 05:35:00,
2013-06-07 01:40:00,55.8,54.1,30.09,East,98,0.0,0.0,94,0.00,-RA,,0.03,WeatherDisplay:10.37,2013-06-07 05:40:00,
2013-06-07 01:45:00,55.8,54.1,30.08,East,98,0.0,0.0,94,0.00,-RA,,0.03,WeatherDisplay:10.37,2013-06-07 05:45:00,
2013-06-07 01:50:00,55.7,54.0,30.09,East,98,0.0,0.0,94,0.00,-RA,,0.03,WeatherDisplay:10.37,2013-06-07 05:50:00,
2013-06-07 01:55:00,55.6,54.2,30.08,East,98,0.0,0.0,95,0.00,-RA,,0.03,WeatherDisplay:10.37,2013-06-07 05:55:00,
2013-06-07 02:00:00,55.5,53.8,30.08,East,98,0.0,0.0,94,0.00,-RA,,0.03,WeatherDisplay:10.37,2013-06-07 06:00:00,
2013-06-07 02:05:00,55.5,53.8,30.08,East,98,0.0,0.0,94,0.00,OVC,,0.03,WeatherDisplay:10.37,2013-06-07 06:05:00,
2013-06-07 02:10:00,55.4,53.7,30.08,East,98,0.0,0.0,94,0.00,OVC,,0.03,WeatherDisplay:10.37,2013-06-07 06:10:00,
2013-06-07 02:15:00,55.4,54.0,30.08,East,98,0.0,0.0,95,0.00,OVC,,0.03,WeatherDisplay:10.37,2013-06-07 06:15:00,
2013-06-07 02:20:00,55.4,54.0,30.08,East,98,0.0,0.0,95,0.00,OVC,,0.03,WeatherDisplay:10.37,2013-06-07 06:20:00,
2013-06-07 02:25:00,55.4,54.0,30.08,East,98,0.0,0.0,95,0.00,OVC,,0.03,WeatherDisplay:10.37,2013-06-07 06:25:00,
2013-06-07 02:30:00,55.5,54.1,30.07,East,98,0.0,0.0,95,0.00,OVC,,0.03,WeatherDisplay:10.37,2013-06-07 06:30:00,
2013-06-07 02:35:00,55.5,54.1,30.07,East,98,0.0,0.0,95,0.00,OVC,,0.03,WeatherDisplay:10.37,2013-06-07 06:35:00,
2013-06-07 02:40:00,55.5,54.1,30.07,East,98,0.0,0.0,95,0.00,OVC,,0.03,WeatherDisplay:10.37,2013-06-07 06:40:00,
2013-06-07 02:45:00,55.5,54.1,30.06,East,100,0.0,0.0,95,0.00,OVC,,0.03,WeatherDisplay:10.37,2013-06-07 06:45:00,
2013-06-07 02:50:00,55.5,54.1,30.06,East,97,0.0,0.0,95,0.00,OVC,,0.03,WeatherDisplay:10.37,2013-06-07 06:50:00,
2013-06-07 02:55:00,55.5,54.1,30.06,East,90,0.0,0.0,95,0.00,OVC,,0.03,WeatherDisplay:10.37,2013-06-07 06:55:00,
2013-06-07 03:00:00,55.4,54.0,30.05,East,93,0.0,0.0,95,0.00,OVC,,0.03,WeatherDisplay:10.37,2013-06-07 07:00:00,
2013-06-07 03:05:00,55.4,54.0,30.05,East,97,0.0,0.0,95,0.00,OVC,,0.03,WeatherDisplay:10.37,2013-06-07 07:05:00,
2013-06-07 03:10:00,55.4,53.9,30.05,East,90,0.0,1.0,95,0.00,OVC,,0.03,WeatherDisplay:10.37,2013-06-07 07:10:00,
2013-06-07 03:15:00,55.4,54.0,30.04,East,91,0.0,2.0,95,0.00,OVC,,0.03,WeatherDisplay:10.37,2013-06-07 07:15:00,
2013-06-07 03:20:00,55.4,54.0,30.04,East,83,0.0,2.0,95,0.00,OVC,,0.03,WeatherDisplay:10.37,2013-06-07 07:20:00,
2013-06-07 03:25:00,55.4,54.0,30.03,East,80,1.0,3.0,95,0.00,OVC,,0.03,WeatherDisplay:10.37,2013-06-07 07:25:00,
2013-06-07 03:30:00,55.4,54.0,30.03,East,96,0.0,2.0,95,0.00,OVC,,0.03,WeatherDisplay:10.37,2013-06-07 07:30:00,
2013-06-07 03:35:00,55.4,54.0,30.03,East,83,1.0,4.0,95,0.00,OVC,,0.03,WeatherDisplay:10.37,2013-06-07 07:35:00,
2013-06-07 03:40:00,55.4,54.0,30.03,ENE,77,0.0,3.0,95,0.00,OVC,,0.03,WeatherDisplay:10.37,2013-06-07 07:40:00,
2013-06-07 03:45:00,55.4,54.0,30.03,ESE,110,0.0,3.0,95,0.00,OVC,,0.03,WeatherDisplay:10.37,2013-06-07 07:45:00,
2013-06-07 03:50:00,55.3,53.9,30.03,ESE,119,0.0,1.0,95,0.00,OVC,,0.03,WeatherDisplay:10.37,2013-06-07 07:50:00,
2013-06-07 03:55:00,55.2,53.8,30.03,NE,51,0.0,8.0,95,0.00,OVC,,0.03,WeatherDisplay:10.37,2013-06-07 07:55:00,
2013-06-07 04:00:00,55.2,53.8,30.04,NE,35,0.0,8.0,95,0.00,OVC,,0.03,WeatherDisplay:10.37,2013-06-07 08:00:00,
2013-06-07 04:05:00,55.1,53.7,30.04,NE,51,1.0,4.0,95,0.00,OVC,,0.03,WeatherDisplay:10.37,2013-06-07 08:05:00,
2013-06-07 04:10:00,55.0,53.3,30.04,NE,55,0.0,0.0,94,0.00,OVC,,0.03,WeatherDisplay:10.37,2013-06-07 08:10:00,
2013-06-07 04:15:00,54.8,53.2,30.03,ENE,72,0.0,0.0,94,0.00,OVC,,0.03,WeatherDisplay:10.37,2013-06-07 08:15:00,
2013-06-07 04:20:00,54.8,53.1,30.04,ENE,77,0.0,0.0,94,0.00,OVC,,0.03,WeatherDisplay:10.37,2013-06-07 08:20:00,
2013-06-07 04:25:00,54.8,53.1,30.04,ENE,57,0.0,0.0,94,0.00,OVC,,0.03,WeatherDisplay:10.37,2013-06-07 08:25:00,
2013-06-07 04:30:00,54.7,53.0,30.04,NE,54,0.0,0.0,94,0.00,OVC,,0.03,WeatherDisplay:10.37,2013-06-07 08:30:00,
2013-06-07 04:35:00,54.7,53.0,30.04,East,82,0.0,0.0,94,0.00,OVC,,0.03,WeatherDisplay:10.37,2013-06-07 08:35:00,
2013-06-07 04:40:00,54.7,53.3,30.04,East,98,0.0,0.0,95,0.00,OVC,,0.03,WeatherDisplay:10.37,2013-06-07 08:40:00,
2013-06-07 04:45:00,54.6,52.9,30.04,East,98,0.0,0.0,94,0.00,OVC,,0.03,WeatherDisplay:10.37,2013-06-07 08:45:00,
2013-06-07 04:50:00,54.5,53.1,30.04,East,98,0.0,0.0,95,0.00,OVC,,0.03,WeatherDisplay:10.37,2013-06-07 08:50:00,
2013-06-07 04:55:00,54.4,52.7,30.05,East,98,0.0,0.0,94,0.00,OVC,,0.03,WeatherDisplay:10.37,2013-06-07 08:55:00,
2013-06-07 05:00:00,54.4,53.0,30.05,East,98,0.0,0.0,95,0.00,OVC,,0.03,WeatherDisplay:10.37,2013-06-07 09:00:00,
2013-06-07 05:05:00,54.3,52.9,30.05,East,98,0.0,0.0,95,0.00,OVC,,0.03,WeatherDisplay:10.37,2013-06-07 09:05:00,
2013-06-07 05:10:00,54.2,52.5,30.05,East,98,0.0,0.0,94,0.00,OVC,,0.03,WeatherDisplay:10.37,2013-06-07 09:10:00,
2013-06-07 05:15:00,54.1,52.7,30.05,East,98,0.0,0.0,95,0.00,OVC,,0.03,WeatherDisplay:10.37,2013-06-07 09:15:00,
2013-06-07 05:20:00,54.2,52.8,30.05,East,98,0.0,0.0,95,0.00,OVC,,0.03,WeatherDisplay:10.37,2013-06-07 09:20:00,
2013-06-07 05:25:00,54.2,52.8,30.04,East,98,0.0,0.0,95,0.00,OVC,,0.03,WeatherDisplay:10.37,2013-06-07 09:25:00,
2013-06-07 05:30:00,54.3,52.9,30.05,East,98,0.0,0.0,95,0.00,OVC,,0.03,WeatherDisplay:10.37,2013-06-07 09:30:00,
2013-06-07 05:35:00,54.2,52.5,30.04,East,98,0.0,0.0,94,0.00,OVC,,0.03,WeatherDisplay:10.37,2013-06-07 09:35:00,
2013-06-07 05:40:00,54.2,52.8,30.05,East,97,0.0,0.0,95,0.00,OVC,,0.03,WeatherDisplay:10.37,2013-06-07 09:40:00,
2013-06-07 05:45:00,54.2,52.8,30.05,East,97,0.0,0.0,95,0.00,OVC,,0.03,WeatherDisplay:10.37,2013-06-07 09:45:00,
2013-06-07 05:50:00,54.2,52.8,30.05,East,97,0.0,0.0,95,0.00,OVC,,0.03,WeatherDisplay:10.37,2013-06-07 09:50:00,
2013-06-07 05:55:00,54.2,52.7,30.05,East,97,0.0,0.0,95,0.00,OVC,,0.03,WeatherDisplay:10.37,2013-06-07 09:55:00,
2013-06-07 06:00:00,54.1,52.7,30.05,East,97,0.0,0.0,95,0.00,OVC,,0.03,WeatherDisplay:10.37,2013-06-07 10:00:00,
2013-06-07 06:05:00,54.2,52.7,30.05,East,97,0.0,0.0,95,0.00,OVC,,0.03,WeatherDisplay:10.37,2013-06-07 10:05:00,
2013-06-07 06:10:00,54.1,52.7,30.05,East,97,0.0,0.0,95,0.00,OVC,,0.03,WeatherDisplay:10.37,2013-06-07 10:10:00,
2013-06-07 06:15:00,54.1,52.7,30.05,East,97,0.0,0.0,95,0.00,OVC,,0.03,WeatherDisplay:10.37,2013-06-07 10:15:00,
2013-06-07 06:20:00,54.1,52.7,30.05,East,97,0.0,0.0,95,0.00,OVC,,0.03,WeatherDisplay:10.37,2013-06-07 10:20:00,
2013-06-07 06:25:00,54.1,52.7,30.06,East,97,0.0,0.0,95,0.00,OVC,,0.03,WeatherDisplay:10.37,2013-06-07 10:25:00,
2013-06-07 06:30:00,54.1,52.7,30.05,East,97,0.0,0.0,95,0.00,OVC,,0.03,WeatherDisplay:10.37,2013-06-07 10:30:00,
2013-06-07 06:35:00,54.1,52.7,30.05,East,97,0.0,0.0,95,0.00,OVC,,0.03,WeatherDisplay:10.37,2013-06-07 10:35:00,
2013-06-07 06:40:00,54.1,52.7,30.05,East,97,0.0,0.0,95,0.00,OVC,,0.03,WeatherDisplay:10.37,2013-06-07 10:40:00,
2013-06-07 06:45:00,54.1,52.7,30.05,East,97,0.0,0.0,95,0.00,OVC,,0.03,WeatherDisplay:10.37,2013-06-07 10:45:00,
2013-06-07 06:50:00,54.1,52.7,30.05,East,97,0.0,0.0,95,0.00,OVC,,0.03,WeatherDisplay:10.37,2013-06-07 10:50:00,
2013-06-07 06:55:00,54.0,52.6,30.06,East,98,0.0,0.0,95,0.00,OVC,,0.03,WeatherDisplay:10.37,2013-06-07 10:55:00,
2013-06-07 07:00:00,53.9,52.5,30.06,East,98,0.0,0.0,95,0.00,OVC,,0.03,WeatherDisplay:10.37,2013-06-07 11:00:00,
2013-06-07 07:05:00,54.0,52.6,30.05,East,98,0.0,0.0,95,0.00,-RA,,0.03,WeatherDisplay:10.37,2013-06-07 11:05:00,
2013-06-07 07:10:00,53.9,52.5,30.05,East,98,0.0,0.0,95,0.00,-RA,,0.03,WeatherDisplay:10.37,2013-06-07 11:10:00,
2013-06-07 07:15:00,53.9,52.5,30.05,East,98,0.0,0.0,95,0.00,-RA,,0.03,WeatherDisplay:10.37,2013-06-07 11:15:00,
2013-06-07 07:20:00,53.9,52.5,30.05,East,98,0.0,0.0,95,0.00,-RA,,0.03,WeatherDisplay:10.37,2013-06-07 11:20:00,
2013-06-07 07:25:00,53.9,52.5,30.05,East,98,0.0,0.0,95,0.00,-RA,,0.03,WeatherDisplay:10.37,2013-06-07 11:25:00,
2013-06-07 07:30:00,53.9,52.5,30.05,East,98,0.0,0.0,95,0.00,-RA,,0.03,WeatherDisplay:10.37,2013-06-07 11:30:00,
2013-06-07 07:35:00,53.9,52.5,30.05,East,98,0.0,0.0,95,0.00,-RA,,0.03,WeatherDisplay:10.37,2013-06-07 11:35:00,
2013-06-07 07:40:00,53.9,52.5,30.05,East,98,0.0,0.0,95,0.00,-RA,,0.03,WeatherDisplay:10.37,2013-06-07 11:40:00,
2013-06-07 07:45:00,53.9,52.5,30.05,East,98,0.0,0.0,95,0.00,-RA,,0.03,WeatherDisplay:10.37,2013-06-07 11:45:00,
2013-06-07 07:50:00,53.9,52.5,30.05,East,98,0.0,0.0,95,0.00,-RA,,0.03,WeatherDisplay:10.37,2013-06-07 11:50:00,
2013-06-07 07:55:00,53.9,52.5,30.06,East,98,0.0,0.0,95,0.00,-RA,,0.03,WeatherDisplay:10.37,2013-06-07 11:55:00,
2013-06-07 08:00:00,54.0,52.6,30.06,East,98,0.0,0.0,95,0.00,-RA,,0.03,WeatherDisplay:10.37,2013-06-07 12:00:00,
2013-06-07 08:05:00,54.0,52.6,30.06,East,98,0.0,0.0,95,0.00,OVC,,0.03,WeatherDisplay:10.37,2013-06-07 12:05:00,
2013-06-07 08:10:00,54.0,52.6,30.06,East,98,0.0,0.0,95,0.00,OVC,,0.03,WeatherDisplay:10.37,2013-06-07 12:10:00,
2013-06-07 08:15:00,54.1,52.7,30.06,East,98,0.0,0.0,95,0.00,OVC,,0.03,WeatherDisplay:10.37,2013-06-07 12:15:00,
2013-06-07 08:20:00,54.1,52.7,30.06,East,98,0.0,0.0,95,0.00,OVC,,0.03,WeatherDisplay:10.37,2013-06-07 12:20:00,
2013-06-07 08:25:00,54.2,52.5,30.05,East,98,0.0,0.0,94,0.00,OVC,,0.03,WeatherDisplay:10.37,2013-06-07 12:25:00,
2013-06-07 08:30:00,54.2,52.8,30.05,East,98,0.0,0.0,95,0.00,OVC,,0.03,WeatherDisplay:10.37,2013-06-07 12:30:00,
2013-06-07 08:35:00,54.2,52.5,30.05,ENE,71,0.0,0.0,94,0.00,OVC,,0.03,WeatherDisplay:10.37,2013-06-07 12:35:00,
2013-06-07 08:40:00,54.3,52.6,30.05,NNW,336,0.0,0.0,94,0.01,RA,,0.04,WeatherDisplay:10.37,2013-06-07 12:40:00,
2013-06-07 08:45:00,54.3,52.6,30.05,NW,323,0.0,0.0,94,0.00,RA,,0.04,WeatherDisplay:10.37,2013-06-07 12:45:00,
2013-06-07 08:50:00,54.3,52.6,30.05,NW,323,0.0,0.0,94,0.00,OVC,,0.04,WeatherDisplay:10.37,2013-06-07 12:50:00,
2013-06-07 08:55:00,54.4,52.7,30.05,NW,323,0.0,0.0,94,0.00,OVC,,0.04,WeatherDisplay:10.37,2013-06-07 12:55:00,
2013-06-07 09:00:00,54.4,52.7,30.05,NW,326,0.0,0.0,94,0.00,OVC,,0.04,WeatherDisplay:10.37,2013-06-07 13:00:00,
2013-06-07 09:05:00,54.4,52.4,30.05,NNW,331,0.0,1.0,93,0.00,-RA,,0.04,WeatherDisplay:10.37,2013-06-07 13:05:00,
2013-06-07 09:10:00,54.3,52.3,30.06,NNE,18,0.0,0.0,93,0.00,-RA,,0.04,WeatherDisplay:10.37,2013-06-07 13:10:00,
2013-06-07 09:15:00,54.3,52.3,30.05,NE,44,0.0,0.0,93,0.01,-RA,,0.05,WeatherDisplay:10.37,2013-06-07 13:15:00,
2013-06-07 09:20:00,54.2,52.5,30.05,NE,47,0.0,0.0,94,0.01,-RA,,0.06,WeatherDisplay:10.37,2013-06-07 13:20:00,
2013-06-07 09:25:00,54.1,52.1,30.05,NE,50,0.0,0.0,93,0.00,-RA,,0.06,WeatherDisplay:10.37,2013-06-07 13:25:00,
2013-06-07 09:30:00,54.0,52.0,30.05,NE,51,0.0,0.0,93,0.00,-RA,,0.06,WeatherDisplay:10.37,2013-06-07 13:30:00,
2013-06-07 09:35:00,54.0,52.3,30.06,East,83,0.0,0.0,94,0.01,-RA,,0.07,WeatherDisplay:10.37,2013-06-07 13:35:00,
2013-06-07 09:40:00,53.9,52.3,30.05,ESE,115,0.0,0.0,94,0.00,-RA,,0.07,WeatherDisplay:10.37,2013-06-07 13:40:00,
2013-06-07 09:45:00,53.9,52.2,30.05,East,87,0.0,0.0,94,0.00,-RA,,0.07,WeatherDisplay:10.37,2013-06-07 13:45:00,
2013-06-07 09:50:00,53.9,52.5,30.05,NE,55,0.0,0.0,95,0.01,-RA,,0.08,WeatherDisplay:10.37,2013-06-07 13:50:00,
2013-06-07 09:55:00,53.8,52.4,30.05,NE,49,0.0,0.0,95,0.00,-RA,,0.08,WeatherDisplay:10.37,2013-06-07 13:55:00,
2013-06-07 10:00:00,53.7,52.3,30.05,NE,46,0.0,0.0,95,0.00,-RA,,0.08,WeatherDisplay:10.37,2013-06-07 14:00:00,
2013-06-07 10:05:00,53.6,51.9,30.06,NE,38,0.0,1.0,94,0.00,-RA,,0.08,WeatherDisplay:10.37,2013-06-07 14:05:00,
2013-06-07 10:10:00,53.6,52.2,30.05,ESE,113,0.0,0.0,95,0.01,-RA,,0.09,WeatherDisplay:10.37,2013-06-07 14:10:00,
2013-06-07 10:15:00,53.5,51.8,30.05,ESE,104,0.0,1.0,94,0.00,-RA,,0.09,WeatherDisplay:10.37,2013-06-07 14:15:00,
2013-06-07 10:20:00,53.5,52.1,30.05,East,89,0.0,0.0,95,0.00,-RA,,0.09,WeatherDisplay:10.37,2013-06-07 14:20:00,
2013-06-07 10:25:00,53.5,52.1,30.05,East,89,0.0,1.0,95,0.00,-RA,,0.09,WeatherDisplay:10.37,2013-06-07 14:25:00,
2013-06-07 10:30:00,53.5,52.1,30.06,ENE,76,0.0,2.0,95,0.00,-RA,,0.09,WeatherDisplay:10.37,2013-06-07 14:30:00,
2013-06-07 10:35:00,53.4,52.0,30.06,ENE,74,1.0,7.0,95,0.00,-RA,,0.09,WeatherDisplay:10.37,2013-06-07 14:35:00,
2013-06-07 10:40:00,53.3,51.9,30.06,ENE,60,0.0,4.0,95,0.00,-RA,,0.09,WeatherDisplay:10.37,2013-06-07 14:40:00,
2013-06-07 10:45:00,53.3,51.9,30.06,NE,51,1.0,5.0,95,0.00,-RA,,0.09,WeatherDisplay:10.37,2013-06-07 14:45:00,
2013-06-07 10:50:00,53.2,51.8,30.06,ENE,76,0.0,3.0,95,0.00,-RA,,0.09,WeatherDisplay:10.37,2013-06-07 14:50:00,
2013-06-07 10:55:00,53.3,51.9,30.06,East,96,0.0,3.0,95,0.00,-RA,,0.09,WeatherDisplay:10.37,2013-06-07 14:55:00,
2013-06-07 11:00:00,53.2,51.8,30.06,ENE,69,0.0,3.0,95,0.01,-RA,,0.10,WeatherDisplay:10.37,2013-06-07 15:00:00,
2013-06-07 11:05:00,53.1,51.7,30.06,East,79,0.0,4.0,95,0.00,-RA,,0.10,WeatherDisplay:10.37,2013-06-07 15:05:00,
2013-06-07 11:10:00,53.0,51.6,30.06,East,80,1.0,7.0,95,0.00,-RA,,0.10,WeatherDisplay:10.37,2013-06-07 15:10:00,
2013-06-07 11:15:00,53.0,51.6,30.06,NE,55,0.0,2.0,95,0.00,-RA,,0.10,WeatherDisplay:10.37,2013-06-07 15:15:00,
2013-06-07 11:20:00,53.0,51.6,30.06,NE,43,0.0,2.0,95,0.00,-RA,,0.10,WeatherDisplay:10.37,2013-06-07 15:20:00,
2013-06-07 11:25:00,53.0,51.6,30.06,NE,39,0.0,2.0,95,0.00,-RA,,0.10,WeatherDisplay:10.37,2013-06-07 15:25:00,
2013-06-07 11:30:00,53.1,51.7,30.06,NE,48,0.0,4.0,95,0.00,-RA,,0.10,WeatherDisplay:10.37,2013-06-07 15:30:00,
2013-06-07 11:35:00,53.1,51.7,30.06,ENE,74,1.0,3.0,95,0.00,-RA,,0.10,WeatherDisplay:10.37,2013-06-07 15:35:00,
2013-06-07 11:40:00,53.1,51.7,30.06,ESE,107,0.0,2.0,95,0.01,-RA,,0.11,WeatherDisplay:10.37,2013-06-07 15:40:00,
2013-06-07 11:45:00,53.2,51.8,30.05,East,81,0.0,3.0,95,0.00,-RA,,0.11,WeatherDisplay:10.37,2013-06-07 15:45:00,
2013-06-07 11:50:00,53.3,51.9,30.05,ENE,68,0.0,3.0,95,0.00,-RA,,0.11,WeatherDisplay:10.37,2013-06-07 15:50:00,
2013-06-07 11:55:00,53.5,52.4,30.06,NNW,342,0.0,0.0,96,0.01,-RA,,0.12,WeatherDisplay:10.37,2013-06-07 15:55:00,
2013-06-07 12:00:00,53.6,52.5,30.05,NNW,347,0.0,1.0,96,0.00,-RA,,0.12,WeatherDisplay:10.37,2013-06-07 16:00:00,
2013-06-07 12:05:00,53.6,52.5,30.05,East,83,0.0,0.0,96,0.01,-RA,,0.13,WeatherDisplay:10.37,2013-06-07 16:05:00,
2013-06-07 12:10:00,53.8,52.7,30.05,East,84,0.0,1.0,96,0.00,-RA,,0.13,WeatherDisplay:10.37,2013-06-07 16:10:00,
2013-06-07 12:15:00,53.9,52.8,30.05,ENE,68,1.0,3.0,96,0.00,-RA,,0.13,WeatherDisplay:10.37,2013-06-07 16:15:00,
2013-06-07 12:20:00,54.0,52.9,30.05,East,81,0.0,1.0,96,0.01,-RA,,0.14,WeatherDisplay:10.37,2013-06-07 16:20:00,
2013-06-07 12:25:00,54.1,53.0,30.05,SE,130,0.0,3.0,96,0.00,-RA,,0.14,WeatherDisplay:10.37,2013-06-07 16:25:00,
2013-06-07 12:30:00,54.2,53.1,30.05,East,88,0.0,2.0,96,0.01,-RA,,0.15,WeatherDisplay:10.37,2013-06-07 16:30:00,
2013-06-07 12:35:00,54.2,53.1,30.05,ENE,67,0.0,3.0,96,0.00,-RA,,0.15,WeatherDisplay:10.37,2013-06-07 16:35:00,
2013-06-07 12:40:00,54.4,53.3,30.05,NE,44,0.0,0.0,96,0.01,-RA,,0.16,WeatherDisplay:10.37,2013-06-07 16:40:00,
2013-06-07 12:45:00,54.6,53.5,30.05,NE,41,0.0,5.0,96,0.00,-RA,,0.16,WeatherDisplay:10.37,2013-06-07 16:45:00,
2013-06-07 12:50:00,54.7,53.6,30.05,East,82,1.0,5.0,96,0.01,-RA,,0.17,WeatherDisplay:10.37,2013-06-07 16:50:00,
2013-06-07 12:55:00,54.8,53.7,30.05,East,88,0.0,2.0,96,0.01,-RA,,0.18,WeatherDisplay:10.37,2013-06-07 16:55:00,
2013-06-07 13:00:00,55.0,53.9,30.04,East,79,1.0,3.0,96,0.01,-RA,,0.19,WeatherDisplay:10.37,2013-06-07 17:00:00,
2013-06-07 13:05:00,55.1,54.0,30.04,East,82,1.0,4.0,96,0.00,-RA,,0.19,WeatherDisplay:10.37,2013-06-07 17:05:00,
2013-06-07 13:10:00,55.2,54.1,30.04,ENE,75,2.0,6.0,96,0.01,-RA,,0.20,WeatherDisplay:10.37,2013-06-07 17:10:00,
2013-06-07 13:15:00,55.3,54.2,30.04,East,79,1.0,2.0,96,0.00,-RA,,0.20,WeatherDisplay:10.37,2013-06-07 17:15:00,
2013-06-07 13:20:00,55.4,54.3,30.04,East,84,0.0,2.0,96,0.01,-RA,,0.21,WeatherDisplay:10.37,2013-06-07 17:20:00,
2013-06-07 13:25:00,55.5,54.4,30.04,East,95,1.0,5.0,96,0.00,-RA,,0.21,WeatherDisplay:10.37,2013-06-07 17:25:00,
2013-06-07 13:30:00,55.4,54.3,30.04,East,86,2.0,5.0,96,0.01,-RA,,0.22,WeatherDisplay:10.37,2013-06-07 17:30:00,
2013-06-07 13:35:00,55.4,54.3,30.04,East,99,0.0,3.0,96,0.01,-RA,,0.23,WeatherDisplay:10.37,2013-06-07 17:35:00,
2013-06-07 13:40:00,55.4,54.3,30.03,ESE,116,1.0,4.0,96,0.01,-RA,,0.24,WeatherDisplay:10.37,2013-06-07 17:40:00,
2013-06-07 13:45:00,55.5,54.4,30.03,ENE,75,0.0,4.0,96,0.01,-RA,,0.25,WeatherDisplay:10.37,2013-06-07 17:45:00,
2013-06-07 13:50:00,55.5,54.4,30.04,NE,44,1.0,8.0,96,0.00,-RA,,0.25,WeatherDisplay:10.37,2013-06-07 17:50:00,
2013-06-07 13:55:00,55.5,54.1,30.03,ENE,60,1.0,7.0,95,0.01,-RA,,0.26,WeatherDisplay:10.37,2013-06-07 17:55:00,
2013-06-07 14:00:00,55.5,54.4,30.03,ENE,66,1.0,3.0,96,0.01,-RA,,0.27,WeatherDisplay:10.37,2013-06-07 18:00:00,
2013-06-07 14:05:00,55.6,54.4,30.04,NE,40,0.0,3.0,96,0.00,RA,,0.27,WeatherDisplay:10.37,2013-06-07 18:05:00,
2013-06-07 14:10:00,55.6,54.5,30.04,East,79,1.0,4.0,96,0.01,RA,,0.28,WeatherDisplay:10.37,2013-06-07 18:10:00,
2013-06-07 14:20:00,55.5,54.1,30.03,ENE,60,0.0,3.0,95,0.00,RA,,0.29,WeatherDisplay:10.37,2013-06-07 18:20:00,
2013-06-07 14:25:00,55.5,54.4,30.03,ENE,65,1.0,3.0,96,0.01,RA,,0.30,WeatherDisplay:10.37,2013-06-07 18:25:00,
2013-06-07 14:35:00,55.3,53.9,30.03,ENE,78,2.0,6.0,95,0.01,RA,,0.32,WeatherDisplay:10.37,2013-06-07 18:35:00,
2013-06-07 14:40:00,55.1,53.7,30.03,East,88,1.0,3.0,95,0.01,RA,,0.33,WeatherDisplay:10.37,2013-06-07 18:40:00,
2013-06-07 14:45:00,55.1,53.7,30.03,East,97,1.0,2.0,95,0.01,RA,,0.34,WeatherDisplay:10.37,2013-06-07 18:45:00,
2013-06-07 14:50:00,55.2,53.8,30.03,ENE,72,0.0,2.0,95,0.01,RA,,0.35,WeatherDisplay:10.37,2013-06-07 18:50:00,
2013-06-07 14:55:00,55.2,54.1,30.03,NNE,26,1.0,2.0,96,0.01,RA,,0.36,WeatherDisplay:10.37,2013-06-07 18:55:00,
2013-06-07 15:00:00,55.3,54.2,30.03,East,89,3.0,5.0,96,0.00,RA,,0.36,WeatherDisplay:10.37,2013-06-07 19:00:00,
2013-06-07 15:05:00,55.2,53.8,30.03,ESE,108,1.0,4.0,95,0.01,RA,,0.37,WeatherDisplay:10.37,2013-06-07 19:05:00,
2013-06-07 15:15:00,55.1,53.7,30.03,ENE,67,0.0,5.0,95,0.01,RA,,0.39,WeatherDisplay:10.37,2013-06-07 19:15:00,
2013-06-07 15:20:00,55.1,53.7,30.02,ENE,74,0.0,6.0,95,0.01,RA,,0.40,WeatherDisplay:10.37,2013-06-07 19:20:00,
2013-06-07 15:25:00,55.1,53.7,30.02,ENE,64,1.0,5.0,95,0.00,RA,,0.40,WeatherDisplay:10.37,2013-06-07 19:25:00,
2013-06-07 15:30:00,55.1,53.7,30.02,East,91,0.0,5.0,95,0.01,RA,,0.41,WeatherDisplay:10.37,2013-06-07 19:30:00,
2013-06-07 15:35:00,55.0,53.6,30.02,East,87,0.0,8.0,95,0.01,-RA,,0.42,WeatherDisplay:10.37,2013-06-07 19:35:00,
2013-06-07 15:40:00,55.1,54.0,30.01,East,95,2.0,5.0,96,0.01,-RA,,0.43,WeatherDisplay:10.37,2013-06-07 19:40:00,
2013-06-07 15:45:00,55.0,53.6,30.01,East,83,0.0,5.0,95,0.00,-RA,,0.43,WeatherDisplay:10.37,2013-06-07 19:45:00,
2013-06-07 15:50:00,55.1,54.0,30.01,ENE,75,0.0,3.0,96,0.00,-RA,,0.43,WeatherDisplay:10.37,2013-06-07 19:50:00,
2013-06-07 15:55:00,55.1,54.0,30.01,East,92,0.0,3.0,96,0.01,-RA,,0.44,WeatherDisplay:10.37,2013-06-07 19:55:00,
2013-06-07 16:00:00,55.1,54.0,30.01,East,89,0.0,3.0,96,0.00,-RA,,0.44,WeatherDisplay:10.37,2013-06-07 20:00:00,
2013-06-07 16:05:00,55.1,53.7,30.00,ENE,58,2.0,6.0,95,0.02,-RA,,0.46,WeatherDisplay:10.37,2013-06-07 20:05:00,
2013-06-07 16:25:00,54.8,53.4,30.00,ENE,60,2.0,9.0,95,0.01,-RA,,0.48,WeatherDisplay:10.37,2013-06-07 20:25:00,
2013-06-07 16:30:00,54.8,53.4,29.99,ENE,73,1.0,7.0,95,0.00,-RA,,0.48,WeatherDisplay:10.37,2013-06-07 20:30:00,
2013-06-07 16:35:00,54.7,53.3,29.99,East,85,3.0,7.0,95,0.01,-RA,,0.49,WeatherDisplay:10.37,2013-06-07 20:35:00,
2013-06-07 16:40:00,54.6,53.2,29.99,ESE,105,0.0,5.0,95,0.00,-RA,,0.49,WeatherDisplay:10.37,2013-06-07 20:40:00,
2013-06-07 16:45:00,54.6,53.2,29.99,East,93,2.0,7.0,95,0.01,-RA,,0.50,WeatherDisplay:10.37,2013-06-07 20:45:00,
2013-06-07 16:50:00,54.5,53.1,29.99,East,84,0.0,6.0,95,0.00,-RA,,0.50,WeatherDisplay:10.37,2013-06-07 20:50:00,
2013-06-07 16:55:00,54.4,53.0,29.99,East,80,0.0,2.0,95,0.01,-RA,,0.51,WeatherDisplay:10.37,2013-06-07 20:55:00,
2013-06-07 17:00:00,54.3,52.9,29.98,ENE,59,0.0,3.0,95,0.02,-RA,,0.53,WeatherDisplay:10.37,2013-06-07 21:00:00,
2013-06-07 17:05:00,54.2,52.8,29.98,ENE,64,1.0,7.0,95,0.01,-RA,,0.54,WeatherDisplay:10.37,2013-06-07 21:05:00,
2013-06-07 17:10:00,54.0,52.6,29.98,ENE,74,1.0,9.0,95,0.02,-RA,,0.56,WeatherDisplay:10.37,2013-06-07 21:10:00,
2013-06-07 17:15:00,53.8,52.4,29.98,ENE,74,2.0,6.0,95,0.02,-RA,,0.58,WeatherDisplay:10.37,2013-06-07 21:15:00,
2013-06-07 17:20:00,53.7,52.3,29.98,ENE,78,0.0,3.0,95,0.02,-RA,,0.60,WeatherDisplay:10.37,2013-06-07 21:20:00,
2013-06-07 17:30:00,53.7,52.6,29.98,East,95,0.0,0.0,96,0.02,-RA,,0.65,WeatherDisplay:10.37,2013-06-07 21:30:00,
2013-06-07 17:35:00,53.7,52.6,29.98,East,99,0.0,2.0,96,0.02,-RA,,0.67,WeatherDisplay:10.37,2013-06-07 21:35:00,
2013-06-07 17:40:00,53.5,52.1,29.98,ESE,103,1.0,9.0,95,0.02,-RA,,0.69,WeatherDisplay:10.37,2013-06-07 21:40:00,
2013-06-07 17:45:00,53.3,51.9,29.98,East,96,1.0,5.0,95,0.02,-RA,,0.71,WeatherDisplay:10.37,2013-06-07 21:45:00,
2013-06-07 17:50:00,53.2,51.8,29.98,ESE,113,0.0,2.0,95,0.02,-RA,,0.73,WeatherDisplay:10.37,2013-06-07 21:50:00,
2013-06-07 18:00:00,53.0,51.6,29.98,ESE,112,1.0,5.0,95,0.01,-RA,,0.76,WeatherDisplay:10.37,2013-06-07 22:00:00,
2013-06-07 18:05:00,52.9,51.8,29.98,East,92,0.0,3.0,96,0.02, +RA,,0.78,WeatherDisplay:10.37,2013-06-07 22:05:00,
2013-06-07 18:10:00,52.8,51.7,29.98,ENE,74,0.0,5.0,96,0.01, +RA,,0.79,WeatherDisplay:10.37,2013-06-07 22:10:00,
2013-06-07 18:25:00,52.6,51.5,29.98,WNW,291,0.0,2.0,96,0.01, +RA,,0.82,WeatherDisplay:10.37,2013-06-07 22:25:00,
2013-06-07 18:30:00,52.5,51.4,29.98,NW,325,0.0,0.0,96,0.01, +RA,,0.83,WeatherDisplay:10.37,2013-06-07 22:30:00,
2013-06-07 18:35:00,52.5,51.4,29.98,NNW,344,0.0,2.0,96,0.02,-RA,,0.85,WeatherDisplay:10.37,2013-06-07 22:35:00,
2013-06-07 18:40:00,52.5,51.4,29.98,NNE,27,0.0,2.0,96,0.01,-RA,,0.86,WeatherDisplay:10.37,2013-06-07 22:40:00,
2013-06-07 18:45:00,52.4,51.3,29.98,ENE,68,0.0,2.0,96,0.01,-RA,,0.87,WeatherDisplay:10.37,2013-06-07 22:45:00,
2013-06-07 18:50:00,52.4,51.3,29.98,East,82,0.0,0.0,96,0.01,-RA,,0.88,WeatherDisplay:10.37,2013-06-07 22:50:00,
2013-06-07 19:00:00,52.3,51.2,29.98,ENE,75,1.0,5.0,96,0.01,-RA,,0.90,WeatherDisplay:10.37,2013-06-07 23:00:00,
2013-06-07 19:05:00,52.2,51.1,29.97,NE,52,1.0,4.0,96,0.01,RA,,0.91,WeatherDisplay:10.37,2013-06-07 23:05:00,
2013-06-07 19:15:00,52.0,50.9,29.97,ESE,103,0.0,2.0,96,0.01,RA,,0.92,WeatherDisplay:10.37,2013-06-07 23:15:00,
2013-06-07 19:20:00,52.0,50.9,29.97,East,93,0.0,3.0,96,0.01,RA,,0.93,WeatherDisplay:10.37,2013-06-07 23:20:00,
2013-06-07 19:25:00,51.9,50.8,29.97,East,84,0.0,3.0,96,0.00,RA,,0.93,WeatherDisplay:10.37,2013-06-07 23:25:00,
2013-06-07 19:35:00,51.8,50.7,29.96,ESE,117,0.0,3.0,96,0.00,RA,,0.94,WeatherDisplay:10.37,2013-06-07 23:35:00,
2013-06-07 19:40:00,51.8,50.7,29.96,SE,145,0.0,4.0,96,0.01,RA,,0.95,WeatherDisplay:10.37,2013-06-07 23:40:00,
2013-06-07 19:45:00,51.8,50.7,29.96,ESE,113,1.0,3.0,96,0.01,RA,,0.96,WeatherDisplay:10.37,2013-06-07 23:45:00,
2013-06-07 19:50:00,51.7,50.6,29.95,ENE,74,0.0,3.0,96,0.00,RA,,0.96,WeatherDisplay:10.37,2013-06-07 23:50:00,
2013-06-07 19:55:00,51.7,50.6,29.95,ENE,62,1.0,4.0,96,0.01,RA,,0.97,WeatherDisplay:10.37,2013-06-07 23:55:00,
2013-06-07 20:00:00,51.7,50.6,29.94,NE,56,1.0,4.0,96,0.00,RA,,0.97,WeatherDisplay:10.37,2013-06-08 00:00:00,
2013-06-07 20:05:00,51.6,50.5,29.94,NNE,17,1.0,4.0,96,0.01,RA,,0.98,WeatherDisplay:10.37,2013-06-08 00:05:00,
2013-06-07 20:10:00,51.5,50.4,29.94,NE,43,0.0,3.0,96,0.00,RA,,0.98,WeatherDisplay:10.37,2013-06-08 00:10:00,
2013-06-07 20:15:00,51.5,50.4,29.93,NNW,345,1.0,5.0,96,0.01,RA,,0.99,WeatherDisplay:10.37,2013-06-08 00:15:00,
2013-06-07 20:20:00,51.5,50.4,29.93,NE,42,2.0,4.0,96,0.00,RA,,0.99,WeatherDisplay:10.37,2013-06-08 00:20:00,
2013-06-07 20:25:00,51.4,50.3,29.92,ENE,68,1.0,5.0,96,0.00,OVC,,0.99,WeatherDisplay:10.37,2013-06-08 00:25:00,
2013-06-07 20:30:00,51.4,50.3,29.93,ENE,57,0.0,4.0,96,0.01,RA,,1.00,WeatherDisplay:10.37,2013-06-08 00:30:00,
2013-06-07 20:45:00,51.3,50.2,29.92,NE,36,1.0,9.0,96,0.01,RA,,1.03,WeatherDisplay:10.37,2013-06-08 00:45:00,
2013-06-07 20:50:00,51.3,50.2,29.92,NE,49,2.0,4.0,96,0.01,RA,,1.03,WeatherDisplay:10.37,2013-06-08 00:50:00,
2013-06-07 21:00:00,51.4,50.3,29.91,East,93,1.0,3.0,96,0.01,RA,,1.05,WeatherDisplay:10.37,2013-06-08 01:00:00,
2013-06-07 21:05:00,51.3,50.2,29.91,ENE,72,0.0,5.0,96,0.01,RA,,1.06,WeatherDisplay:10.37,2013-06-08 01:05:00,
2013-06-07 21:10:00,51.3,50.2,29.91,NE,39,1.0,5.0,96,0.01,RA,,1.07,WeatherDisplay:10.37,2013-06-08 01:10:00,
2013-06-07 21:15:00,51.3,50.2,29.91,NNE,23,0.0,4.0,96,0.00,RA,,1.07,WeatherDisplay:10.37,2013-06-08 01:15:00,
2013-06-07 21:20:00,51.4,50.3,29.91,ENE,73,2.0,8.0,96,0.00,OVC,,1.07,WeatherDisplay:10.37,2013-06-08 01:20:00,
2013-06-07 21:30:00,51.5,50.4,29.92,NE,53,0.0,3.0,96,0.00,OVC,,1.07,WeatherDisplay:10.37,2013-06-08 01:30:00,
2013-06-07 21:35:00,51.5,50.4,29.92,East,81,1.0,3.0,96,0.00,OVC,,1.07,WeatherDisplay:10.37,2013-06-08 01:35:00,
2013-06-07 21:40:00,51.5,50.4,29.92,ENE,71,1.0,7.0,96,0.01,RA,,1.08,WeatherDisplay:10.37,2013-06-08 01:40:00,
2013-06-07 21:45:00,51.6,50.5,29.92,NE,41,2.0,12.0,96,0.01,RA,,1.09,WeatherDisplay:10.37,2013-06-08 01:45:00,
2013-06-07 21:55:00,51.8,50.7,29.90,NE,54,1.0,4.0,96,0.01,RA,,1.11,WeatherDisplay:10.37,2013-06-08 01:55:00,
2013-06-07 22:00:00,51.8,50.7,29.90,NE,52,1.0,4.0,96,0.02,RA,,1.13,WeatherDisplay:10.37,2013-06-08 02:00:00,
2013-06-07 22:05:00,51.8,50.7,29.90,ENE,76,1.0,6.0,96,0.02,RA,,1.15,WeatherDisplay:10.37,2013-06-08 02:05:00,
2013-06-07 22:10:00,51.9,50.8,29.90,East,89,1.0,3.0,96,0.01,RA,,1.16,WeatherDisplay:10.37,2013-06-08 02:10:00,
2013-06-07 22:15:00,51.9,50.8,29.89,ENE,76,0.0,6.0,96,0.01,RA,,1.17,WeatherDisplay:10.37,2013-06-08 02:15:00,
2013-06-07 22:25:00,52.0,50.9,29.89,ENE,68,1.0,7.0,96,0.01,RA,,1.18,WeatherDisplay:10.37,2013-06-08 02:25:00,
2013-06-07 22:30:00,52.0,50.9,29.88,ENE,78,0.0,3.0,96,0.00,RA,,1.18,WeatherDisplay:10.37,2013-06-08 02:30:00,
2013-06-07 22:35:00,52.1,51.0,29.88,ENE,63,0.0,4.0,96,0.00,OVC,,1.18,WeatherDisplay:10.37,2013-06-08 02:35:00,
2013-06-07 22:40:00,52.1,51.0,29.88,SE,146,2.0,10.0,96,0.00,OVC,,1.18,WeatherDisplay:10.37,2013-06-08 02:40:00,
2013-06-07 22:45:00,52.1,51.0,29.87,ESE,106,1.0,5.0,96,0.00,OVC,,1.18,WeatherDisplay:10.37,2013-06-08 02:45:00,
2013-06-07 22:50:00,52.2,51.1,29.87,North,354,0.0,5.0,96,0.00,OVC,,1.18,WeatherDisplay:10.37,2013-06-08 02:50:00,
2013-06-07 22:55:00,52.2,51.1,29.88,NNE,24,0.0,9.0,96,0.01,RA,,1.19,WeatherDisplay:10.37,2013-06-08 02:55:00,
2013-06-07 23:00:00,52.2,51.1,29.88,NE,40,0.0,4.0,96,0.00,RA,,1.19,WeatherDisplay:10.37,2013-06-08 03:00:00,
2013-06-07 23:05:00,52.2,51.1,29.87,NE,41,0.0,2.0,96,0.00,OVC,,1.19,WeatherDisplay:10.37,2013-06-08 03:05:00,
2013-06-07 23:10:00,52.2,51.1,29.87,ESE,114,0.0,4.0,96,0.00,OVC,,1.19,WeatherDisplay:10.37,2013-06-08 03:10:00,
2013-06-07 23:20:00,52.3,51.2,29.86,NE,53,0.0,2.0,96,0.00,-RA,,1.19,WeatherDisplay:10.37,2013-06-08 03:20:00,
2013-06-07 23:25:00,52.3,51.2,29.86,NE,37,0.0,2.0,96,0.00,-RA,,1.19,WeatherDisplay:10.37,2013-06-08 03:25:00,
2013-06-07 23:30:00,52.3,51.2,29.86,NE,38,0.0,10.0,96,0.01,-RA,,1.20,WeatherDisplay:10.37,2013-06-08 03:30:00,
2013-06-07 23:35:00,52.2,51.1,29.85,NNE,13,0.0,8.0,96,0.01,-RA,,1.21,WeatherDisplay:10.37,2013-06-08 03:35:00,
2013-06-07 23:40:00,52.2,51.1,29.84,NW,319,0.0,1.0,96,0.00,-RA,,1.21,WeatherDisplay:10.37,2013-06-08 03:40:00,
2013-06-07 23:45:00,52.2,51.1,29.84,NNW,344,0.0,2.0,96,0.00,-RA,,1.21,WeatherDisplay:10.37,2013-06-08 03:45:00,
2013-06-07 23:50:00,52.3,51.2,29.84,NE,38,1.0,3.0,96,0.01,-RA,,1.22,WeatherDisplay:10.37,2013-06-08 03:50:00,
2013-06-07 23:55:00,52.2,51.1,29.84,NNE,22,0.0,5.0,96,0.01,-RA,,1.23,WeatherDisplay:10.37,2013-06-08 03:55:00,